,,,PA_Meas_PMT16A,,PR_Meas_QMR101_102,,RH_Meas_QMH101,,SR_Meas_QMS101,,TA_Meas_QMH101,,GenWind,,GenWind,
date,time,status,PA,status,PR,status,RH,status,SR,status,TA,status,DirAvg,status,SpdAvg,
2011-12-02, 00:00:04,VALID,1000.55,VALID,0,VALID,80.5381,VALID,0,VALID,26.2719,VALID,8,VALID,0.618359,
2011-12-02, 00:01:04,VALID,1000.51,VALID,0,VALID,80.7288,VALID,0,VALID,26.2154,VALID,8,VALID,0.39375,
2011-12-02, 00:02:04,VALID,1000.54,VALID,0,VALID,81.1865,VALID,0,VALID,26.1375,VALID,10,VALID,0.659766,
2011-12-02, 00:03:04,VALID,1000.49,VALID,0,VALID,81.6595,VALID,0,VALID,26.0576,VALID,16,VALID,0.408203,
2011-12-02, 00:04:04,VALID,1000.48,VALID,0,VALID,81.3239,VALID,0,VALID,25.9992,VALID,358,VALID,0.672656,
2011-12-02, 00:05:04,VALID,1000.47,VALID,0,VALID,81.5146,VALID,0,VALID,26.0187,VALID,34,VALID,0.680859,
2011-12-02, 00:06:04,VALID,1000.49,VALID,0,VALID,81.4993,VALID,0,VALID,26.0596,VALID,17,VALID,0.746484,
2011-12-02, 00:07:04,VALID,1000.5,VALID,0,VALID,81.8884,VALID,0,VALID,26.0381,VALID,24,VALID,0.563281,
2011-12-02, 00:08:04,VALID,1000.5,VALID,0,VALID,81.8426,VALID,0,VALID,25.9992,VALID,23,VALID,0.301172,
2011-12-02, 00:09:04,VALID,1000.51,VALID,0,VALID,82.1249,VALID,0,VALID,25.9602,VALID,23,VALID,0.126953,
2011-12-02, 00:10:04,VALID,1000.5,VALID,0,VALID,82.514,VALID,0,VALID,25.9408,VALID,23,VALID,0.0550781,
2011-12-02, 00:11:04,VALID,1000.54,VALID,0,VALID,82.5903,VALID,0,VALID,25.9232,VALID,22,VALID,0.347656,
2011-12-02, 00:12:04,VALID,1000.58,VALID,0,VALID,82.9641,VALID,0,VALID,25.8648,VALID,349,VALID,0.440234,
2011-12-02, 00:13:04,VALID,1000.59,VALID,0,VALID,83.2769,VALID,0,VALID,25.8064,VALID,349,VALID,0.164063,
2011-12-02, 00:14:04,VALID,1000.61,VALID,0,VALID,83.727,VALID,0,VALID,25.748,VALID,325,VALID,0.355859,
2011-12-02, 00:15:04,VALID,1000.61,VALID,0,VALID,84.0779,VALID,0,VALID,25.7304,VALID,325,VALID,0.245703,
2011-12-02, 00:16:04,VALID,1000.62,VALID,0,VALID,84.4593,VALID,0,VALID,25.6506,VALID,325,VALID,0.0328125,
2011-12-02, 00:17:04,VALID,1000.62,VALID,0,VALID,84.7035,VALID,0,VALID,25.5902,VALID,325,VALID,0,
2011-12-02, 00:18:04,VALID,1000.65,VALID,0,VALID,84.9018,VALID,0,VALID,25.5142,VALID,325,VALID,0,
2011-12-02, 00:19:04,VALID,1000.64,VALID,0,VALID,85.329,VALID,0,VALID,25.4539,VALID,325,VALID,0.0183594,
2011-12-02, 00:20:04,VALID,1000.67,VALID,0,VALID,85.7257,VALID,0,VALID,25.4344,VALID,325,VALID,0,
2011-12-02, 00:21:04,VALID,1000.69,VALID,0,VALID,86.2216,VALID,0,VALID,25.376,VALID,325,VALID,0,
2011-12-02, 00:22:04,VALID,1000.71,VALID,0,VALID,86.7404,VALID,0,VALID,25.3584,VALID,325,VALID,0.211328,
2011-12-02, 00:23:04,VALID,1000.71,VALID,0,VALID,86.9464,VALID,0,VALID,25.339,VALID,325,VALID,0,
2011-12-02, 00:24:04,VALID,1000.71,VALID,0,VALID,87.0455,VALID,0,VALID,25.2592,VALID,325,VALID,0,
2011-12-02, 00:25:04,VALID,1000.71,VALID,0,VALID,87.4041,VALID,0,VALID,25.2202,VALID,325,VALID,0,
2011-12-02, 00:26:04,VALID,1000.73,VALID,0,VALID,87.2896,VALID,0,VALID,25.1618,VALID,325,VALID,0,
2011-12-02, 00:27:04,VALID,1000.74,VALID,0,VALID,87.7855,VALID,0,VALID,25.1423,VALID,325,VALID,0.112891,
2011-12-02, 00:28:04,VALID,1000.74,VALID,0,VALID,88.2127,VALID,0,VALID,25.0839,VALID,325,VALID,0.434766,
2011-12-02, 00:29:04,VALID,1000.74,VALID,0,VALID,88.6934,VALID,0,VALID,25.0255,VALID,325,VALID,0.376172,
2011-12-02, 00:30:04,VALID,1000.74,VALID,0,VALID,89.0443,VALID,0,VALID,24.969,VALID,325,VALID,0.313281,
2011-12-02, 00:31:04,VALID,1000.72,VALID,0,VALID,89.3418,VALID,0,VALID,24.9106,VALID,325,VALID,0.265234,
2011-12-02, 00:32:04,VALID,1000.7,VALID,0,VALID,89.5936,VALID,0,VALID,24.8327,VALID,325,VALID,0.255078,
2011-12-02, 00:33:04,VALID,1000.66,VALID,0,VALID,89.8682,VALID,0,VALID,24.7937,VALID,325,VALID,0.197266,
2011-12-02, 00:34:04,VALID,1000.66,VALID,0,VALID,90.0894,VALID,0,VALID,24.7548,VALID,325,VALID,0,
2011-12-02, 00:35:04,VALID,1000.62,VALID,0,VALID,90.2115,VALID,0,VALID,24.6945,VALID,325,VALID,0,
2011-12-02, 00:36:04,VALID,1000.64,VALID,0,VALID,90.3717,VALID,0,VALID,24.675,VALID,325,VALID,0,
2011-12-02, 00:37:04,VALID,1000.66,VALID,0,VALID,90.5396,VALID,0,VALID,24.6361,VALID,325,VALID,0,
2011-12-02, 00:38:04,VALID,1000.64,VALID,0,VALID,90.6311,VALID,0,VALID,24.6593,VALID,325,VALID,0,
2011-12-02, 00:39:04,VALID,1000.63,VALID,0,VALID,90.8295,VALID,0,VALID,24.6166,VALID,325,VALID,0,
2011-12-02, 00:40:04,VALID,1000.6,VALID,0,VALID,90.921,VALID,0,VALID,24.6185,VALID,325,VALID,0,
2011-12-02, 00:41:04,VALID,1000.6,VALID,0,VALID,90.9363,VALID,0,VALID,24.5388,VALID,325,VALID,0,
2011-12-02, 00:42:04,VALID,1000.55,VALID,0,VALID,91.0049,VALID,0,VALID,24.5193,VALID,325,VALID,0,
2011-12-02, 00:43:04,VALID,1000.54,VALID,0,VALID,91.1422,VALID,0,VALID,24.5406,VALID,325,VALID,0,
2011-12-02, 00:44:04,VALID,1000.48,VALID,0,VALID,91.2109,VALID,0,VALID,24.4804,VALID,325,VALID,0,
2011-12-02, 00:45:04,VALID,1000.46,VALID,0,VALID,91.3558,VALID,0,VALID,24.5017,VALID,325,VALID,0,
2011-12-02, 00:46:04,VALID,1000.44,VALID,0,VALID,91.4321,VALID,0,VALID,24.4609,VALID,325,VALID,0,
2011-12-02, 00:47:04,VALID,1000.42,VALID,0,VALID,91.5237,VALID,0,VALID,24.4414,VALID,325,VALID,0,
2011-12-02, 00:48:04,VALID,1000.38,VALID,0,VALID,91.7525,VALID,0,VALID,24.4414,VALID,325,VALID,0.0207031,
2011-12-02, 00:49:04,VALID,1000.35,VALID,0,VALID,91.8441,VALID,0,VALID,24.422,VALID,325,VALID,0,
2011-12-02, 00:50:04,VALID,1000.33,VALID,0,VALID,91.8594,VALID,0,VALID,24.422,VALID,325,VALID,0.0921875,
2011-12-02, 00:51:04,VALID,1000.32,VALID,0,VALID,91.928,VALID,0,VALID,24.4025,VALID,325,VALID,0,
2011-12-02, 00:52:04,VALID,1000.32,VALID,0,VALID,92.0806,VALID,0,VALID,24.383,VALID,325,VALID,0.0585938,
2011-12-02, 00:53:04,VALID,1000.29,VALID,0,VALID,92.0882,VALID,0,VALID,24.4043,VALID,325,VALID,0,
2011-12-02, 00:54:04,VALID,1000.28,VALID,0,VALID,92.2027,VALID,0,VALID,24.3636,VALID,325,VALID,0,
2011-12-02, 00:55:04,VALID,1000.26,VALID,0,VALID,92.2866,VALID,0,VALID,24.4025,VALID,325,VALID,0.146875,
2011-12-02, 00:56:04,VALID,1000.29,VALID,0,VALID,92.1645,VALID,0,VALID,24.4238,VALID,325,VALID,0.0710938,
2011-12-02, 00:57:04,VALID,1000.24,VALID,0,VALID,92.1416,VALID,0,VALID,24.3636,VALID,325,VALID,0,
2011-12-02, 00:58:04,VALID,1000.24,VALID,0,VALID,92.2255,VALID,0,VALID,24.383,VALID,325,VALID,0,
2011-12-02, 00:59:04,VALID,1000.26,VALID,0,VALID,92.4544,VALID,0,VALID,24.383,VALID,325,VALID,0.276172,
2011-12-02, 01:00:04,VALID,1000.22,VALID,0,VALID,92.5154,VALID,0,VALID,24.422,VALID,325,VALID,0.179297,
2011-12-02, 01:01:04,VALID,1000.23,VALID,0,VALID,92.4391,VALID,0.0815089,VALID,24.422,VALID,325,VALID,0.00234375,
2011-12-02, 01:02:04,VALID,1000.18,VALID,0,VALID,92.3781,VALID,0.0815089,VALID,24.422,VALID,325,VALID,0,
2011-12-02, 01:03:04,VALID,1000.16,VALID,0,VALID,92.462,VALID,0,VALID,24.422,VALID,325,VALID,0,
2011-12-02, 01:04:04,VALID,1000.15,VALID,0,VALID,92.5536,VALID,0,VALID,24.4414,VALID,325,VALID,0,
2011-12-02, 01:05:04,VALID,1000.12,VALID,0,VALID,92.4849,VALID,0.0815089,VALID,24.422,VALID,325,VALID,0,
2011-12-02, 01:06:04,VALID,1000.1,VALID,0,VALID,92.546,VALID,0,VALID,24.4414,VALID,325,VALID,0.0144531,
2011-12-02, 01:07:04,VALID,1000.11,VALID,0,VALID,92.6222,VALID,0.0815089,VALID,24.4414,VALID,325,VALID,0,
2011-12-02, 01:08:04,VALID,1000.1,VALID,0,VALID,92.5383,VALID,0.0815089,VALID,24.4414,VALID,325,VALID,0.139453,
2011-12-02, 01:09:04,VALID,1000.1,VALID,0,VALID,92.401,VALID,0,VALID,24.422,VALID,325,VALID,0.159375,
2011-12-02, 01:10:04,VALID,1000.11,VALID,0,VALID,92.3476,VALID,0,VALID,24.383,VALID,325,VALID,0.140234,
2011-12-02, 01:11:04,VALID,1000.13,VALID,0,VALID,92.4315,VALID,0.0815089,VALID,24.383,VALID,325,VALID,0,
2011-12-02, 01:12:04,VALID,1000.13,VALID,0,VALID,92.5231,VALID,0,VALID,24.3636,VALID,325,VALID,0,
2011-12-02, 01:13:04,VALID,1000.15,VALID,0,VALID,92.6756,VALID,0.0815089,VALID,24.3636,VALID,325,VALID,0.0492188,
2011-12-02, 01:14:04,VALID,1000.17,VALID,0,VALID,92.6222,VALID,0.0815089,VALID,24.383,VALID,325,VALID,0.071875,
2011-12-02, 01:15:04,VALID,1000.2,VALID,0,VALID,92.5383,VALID,0.0815089,VALID,24.3636,VALID,325,VALID,0,
2011-12-02, 01:16:04,VALID,1000.23,VALID,0,VALID,92.5307,VALID,0,VALID,24.3654,VALID,325,VALID,0,
2011-12-02, 01:17:04,VALID,1000.23,VALID,0,VALID,92.5612,VALID,0,VALID,24.3441,VALID,325,VALID,0,
2011-12-02, 01:18:04,VALID,1000.22,VALID,0,VALID,92.7596,VALID,0,VALID,24.3654,VALID,325,VALID,0.354688,
2011-12-02, 01:19:04,VALID,1000.22,VALID,0,VALID,92.8053,VALID,0,VALID,24.3441,VALID,325,VALID,0.408594,
2011-12-02, 01:20:04,VALID,1000.22,VALID,0,VALID,92.7672,VALID,0.0815089,VALID,24.3246,VALID,325,VALID,0.154687,
2011-12-02, 01:21:04,VALID,1000.21,VALID,0,VALID,92.7901,VALID,0.0815089,VALID,24.3052,VALID,325,VALID,0.309375,
2011-12-02, 01:22:04,VALID,1000.23,VALID,0,VALID,93.0418,VALID,0.0815089,VALID,24.3052,VALID,325,VALID,0.341406,
2011-12-02, 01:23:04,VALID,1000.22,VALID,0,VALID,92.9655,VALID,0,VALID,24.2857,VALID,325,VALID,0.320703,
2011-12-02, 01:24:04,VALID,1000.22,VALID,0,VALID,92.9961,VALID,0.0815089,VALID,24.2449,VALID,325,VALID,0.224609,
2011-12-02, 01:25:04,VALID,1000.23,VALID,0,VALID,93.0418,VALID,0.0815089,VALID,24.2255,VALID,325,VALID,0.146094,
2011-12-02, 01:26:04,VALID,1000.2,VALID,0,VALID,93.0495,VALID,0,VALID,24.2468,VALID,325,VALID,0,
2011-12-02, 01:27:04,VALID,1000.2,VALID,0,VALID,93.1563,VALID,0.0815089,VALID,24.2468,VALID,325,VALID,0,
2011-12-02, 01:28:04,VALID,1000.2,VALID,0,VALID,93.2173,VALID,0.0815089,VALID,24.2273,VALID,325,VALID,0,
2011-12-02, 01:29:04,VALID,1000.16,VALID,0,VALID,93.2249,VALID,0.0815089,VALID,24.2078,VALID,325,VALID,0,
2011-12-02, 01:30:04,VALID,1000.17,VALID,0,VALID,93.1639,VALID,0.0815089,VALID,24.1671,VALID,325,VALID,0,
2011-12-02, 01:31:04,VALID,1000.15,VALID,0,VALID,93.3394,VALID,0.0815089,VALID,24.1884,VALID,325,VALID,0.327344,
2011-12-02, 01:32:04,VALID,1000.13,VALID,0,VALID,93.3317,VALID,0.0815089,VALID,24.1671,VALID,325,VALID,0.442187,
2011-12-02, 01:33:04,VALID,1000.14,VALID,0,VALID,93.347,VALID,0.0815089,VALID,24.1689,VALID,325,VALID,0.455859,
2011-12-02, 01:34:04,VALID,1000.17,VALID,0,VALID,93.3851,VALID,0.0815089,VALID,24.1689,VALID,325,VALID,0.360547,
2011-12-02, 01:35:04,VALID,1000.09,VALID,0,VALID,93.4156,VALID,0.0815089,VALID,24.1494,VALID,325,VALID,0.423047,
2011-12-02, 01:36:04,VALID,1000.09,VALID,0,VALID,93.5682,VALID,0,VALID,24.13,VALID,325,VALID,0.477344,
2011-12-02, 01:37:04,VALID,1000.1,VALID,0,VALID,93.5682,VALID,0,VALID,24.1513,VALID,327,VALID,0.467969,
2011-12-02, 01:38:04,VALID,1000.09,VALID,0,VALID,93.6369,VALID,0.0815089,VALID,24.1105,VALID,326,VALID,0.457031,
2011-12-02, 01:39:04,VALID,1000.05,VALID,0,VALID,93.7284,VALID,0.0815089,VALID,24.091,VALID,326,VALID,0.255078,
2011-12-02, 01:40:04,VALID,1000.01,VALID,0,VALID,93.82,VALID,0,VALID,24.13,VALID,326,VALID,0.378906,
2011-12-02, 01:41:04,VALID,1000.01,VALID,0,VALID,93.8123,VALID,0.0815089,VALID,24.1105,VALID,326,VALID,0.517187,
2011-12-02, 01:42:04,VALID,999.975,VALID,0,VALID,93.8276,VALID,0.0815089,VALID,24.1087,VALID,326,VALID,0.262891,
2011-12-02, 01:43:04,VALID,999.997,VALID,0,VALID,93.8963,VALID,0,VALID,24.13,VALID,326,VALID,0.305859,
2011-12-02, 01:44:04,VALID,999.984,VALID,0,VALID,93.8657,VALID,0.0815089,VALID,24.1689,VALID,326,VALID,0.411328,
2011-12-02, 01:45:04,VALID,999.983,VALID,0,VALID,93.9115,VALID,0,VALID,24.1494,VALID,326,VALID,0.273828,
2011-12-02, 01:46:04,VALID,999.961,VALID,0,VALID,93.9191,VALID,0.0815089,VALID,24.1884,VALID,326,VALID,0.190234,
2011-12-02, 01:47:04,VALID,999.962,VALID,0,VALID,93.8581,VALID,0.0815089,VALID,24.1671,VALID,326,VALID,0.311719,
2011-12-02, 01:48:04,VALID,999.953,VALID,0,VALID,93.8123,VALID,0.0815089,VALID,24.1671,VALID,327,VALID,0.603516,
2011-12-02, 01:49:04,VALID,999.939,VALID,0,VALID,93.7589,VALID,0.0815089,VALID,24.1476,VALID,327,VALID,0.326172,
2011-12-02, 01:50:04,VALID,999.944,VALID,0,VALID,93.8429,VALID,0.0815089,VALID,24.1281,VALID,327,VALID,0.1125,
2011-12-02, 01:51:04,VALID,999.885,VALID,0,VALID,93.82,VALID,0.0815089,VALID,24.1476,VALID,327,VALID,0.273047,
2011-12-02, 01:52:04,VALID,999.881,VALID,0,VALID,93.7361,VALID,0,VALID,24.1494,VALID,327,VALID,0.275391,
2011-12-02, 01:53:04,VALID,999.877,VALID,0,VALID,93.8123,VALID,0.0815089,VALID,24.1281,VALID,327,VALID,0.105469,
2011-12-02, 01:54:04,VALID,999.849,VALID,0,VALID,93.881,VALID,0,VALID,24.1494,VALID,333,VALID,0.746875,
2011-12-02, 01:55:04,VALID,999.819,VALID,0,VALID,93.8352,VALID,0.0815089,VALID,24.1494,VALID,337,VALID,0.328516,
2011-12-02, 01:56:04,VALID,999.773,VALID,0,VALID,94.0031,VALID,0,VALID,24.1494,VALID,337,VALID,0.269922,
2011-12-02, 01:57:04,VALID,999.765,VALID,0,VALID,94.0259,VALID,0.0815089,VALID,24.1689,VALID,337,VALID,0.419531,
2011-12-02, 01:58:04,VALID,999.75,VALID,0,VALID,93.9191,VALID,0.0815089,VALID,24.1476,VALID,337,VALID,0.243359,
2011-12-02, 01:59:04,VALID,999.721,VALID,0,VALID,93.9039,VALID,0.0815089,VALID,24.1494,VALID,337,VALID,0.362109,
2011-12-02, 02:00:04,VALID,999.691,VALID,0,VALID,93.9268,VALID,0,VALID,24.1494,VALID,337,VALID,0.3125,
2011-12-02, 02:01:04,VALID,999.645,VALID,0,VALID,93.8886,VALID,0,VALID,24.1318,VALID,337,VALID,0.44375,
2011-12-02, 02:02:04,VALID,999.593,VALID,0,VALID,94.0107,VALID,0,VALID,24.0892,VALID,337,VALID,0.412109,
2011-12-02, 02:03:04,VALID,999.565,VALID,0,VALID,94.1022,VALID,0.0815089,VALID,24.091,VALID,337,VALID,0.213281,
2011-12-02, 02:04:04,VALID,999.567,VALID,0,VALID,94.0717,VALID,0,VALID,24.091,VALID,337,VALID,0.0828125,
2011-12-02, 02:05:04,VALID,999.527,VALID,0,VALID,94.0565,VALID,0.0815089,VALID,24.0521,VALID,337,VALID,0.139453,
2011-12-02, 02:06:04,VALID,999.537,VALID,0,VALID,94.0794,VALID,0,VALID,24.0326,VALID,337,VALID,0.0980469,
2011-12-02, 02:07:04,VALID,999.494,VALID,0,VALID,94.1556,VALID,0,VALID,24.0521,VALID,337,VALID,0,
2011-12-02, 02:08:04,VALID,999.476,VALID,0,VALID,94.1404,VALID,0,VALID,24.0521,VALID,337,VALID,0,
2011-12-02, 02:09:04,VALID,999.484,VALID,0,VALID,94.1709,VALID,0,VALID,24.0326,VALID,337,VALID,0,
2011-12-02, 02:10:04,VALID,999.459,VALID,0,VALID,94.2396,VALID,0,VALID,24.0326,VALID,337,VALID,0,
2011-12-02, 02:11:04,VALID,999.451,VALID,0,VALID,94.3616,VALID,0,VALID,24.0716,VALID,337,VALID,0,
2011-12-02, 02:12:04,VALID,999.438,VALID,0,VALID,94.4074,VALID,0,VALID,24.091,VALID,337,VALID,0,
2011-12-02, 02:13:04,VALID,999.447,VALID,0,VALID,94.415,VALID,0,VALID,24.091,VALID,337,VALID,0,
2011-12-02, 02:14:04,VALID,999.449,VALID,0,VALID,94.415,VALID,0,VALID,24.1123,VALID,337,VALID,0,
2011-12-02, 02:15:04,VALID,999.425,VALID,0,VALID,94.4074,VALID,0,VALID,24.091,VALID,337,VALID,0,
2011-12-02, 02:16:04,VALID,999.41,VALID,0,VALID,94.4074,VALID,0,VALID,24.0716,VALID,337,VALID,0,
2011-12-02, 02:17:04,VALID,999.375,VALID,0,VALID,94.3692,VALID,0.0815089,VALID,24.0716,VALID,337,VALID,0.000390625,
2011-12-02, 02:18:04,VALID,999.332,VALID,0,VALID,94.3769,VALID,0,VALID,24.0521,VALID,337,VALID,0.208594,
2011-12-02, 02:19:04,VALID,999.303,VALID,0,VALID,94.4303,VALID,0,VALID,24.0716,VALID,337,VALID,0.140625,
2011-12-02, 02:20:04,VALID,999.334,VALID,0,VALID,94.4684,VALID,0,VALID,24.0716,VALID,337,VALID,0.0738281,
2011-12-02, 02:21:04,VALID,999.322,VALID,0,VALID,94.3616,VALID,0,VALID,24.0308,VALID,337,VALID,0.114453,
2011-12-02, 02:22:04,VALID,999.303,VALID,0,VALID,94.3235,VALID,0,VALID,24.0114,VALID,337,VALID,0.283203,
2011-12-02, 02:23:04,VALID,999.308,VALID,0,VALID,94.3235,VALID,0,VALID,24.0114,VALID,337,VALID,0.291016,
2011-12-02, 02:24:04,VALID,999.308,VALID,0,VALID,94.4608,VALID,0,VALID,24.0326,VALID,337,VALID,0.292969,
2011-12-02, 02:25:04,VALID,999.309,VALID,0,VALID,94.5523,VALID,0,VALID,24.0521,VALID,337,VALID,0.236719,
2011-12-02, 02:26:04,VALID,999.306,VALID,0,VALID,94.6897,VALID,0,VALID,24.0716,VALID,337,VALID,0.348437,
2011-12-02, 02:27:04,VALID,999.323,VALID,0,VALID,94.6363,VALID,0,VALID,24.0503,VALID,337,VALID,0.386328,
2011-12-02, 02:28:04,VALID,999.341,VALID,0,VALID,94.5676,VALID,0,VALID,24.0929,VALID,337,VALID,0.488672,
2011-12-02, 02:29:04,VALID,999.316,VALID,0,VALID,94.5371,VALID,0,VALID,24.0521,VALID,337,VALID,0.413672,
2011-12-02, 02:30:04,VALID,999.352,VALID,0,VALID,94.7049,VALID,0,VALID,24.029,VALID,337,VALID,0.312109,
2011-12-02, 02:31:04,VALID,999.341,VALID,0,VALID,94.621,VALID,0,VALID,24.0716,VALID,337,VALID,0.285156,
2011-12-02, 02:32:04,VALID,999.321,VALID,0,VALID,94.6744,VALID,0.0815089,VALID,24.0716,VALID,337,VALID,0.372656,
2011-12-02, 02:33:04,VALID,999.348,VALID,0,VALID,94.6515,VALID,0,VALID,24.0716,VALID,337,VALID,0.358594,
2011-12-02, 02:34:04,VALID,999.317,VALID,0,VALID,94.7507,VALID,0,VALID,24.091,VALID,337,VALID,0.190234,
2011-12-02, 02:35:04,VALID,999.338,VALID,0,VALID,94.682,VALID,0,VALID,24.0503,VALID,337,VALID,0.478125,
2011-12-02, 02:36:04,VALID,999.322,VALID,0,VALID,94.8346,VALID,0,VALID,24.091,VALID,337,VALID,0.301172,
2011-12-02, 02:37:04,VALID,999.316,VALID,0,VALID,94.8575,VALID,0,VALID,24.1105,VALID,337,VALID,0.335547,
2011-12-02, 02:38:04,VALID,999.316,VALID,0,VALID,94.8728,VALID,0,VALID,24.1281,VALID,337,VALID,0.356641,
2011-12-02, 02:39:04,VALID,999.318,VALID,0,VALID,94.8041,VALID,0,VALID,24.1494,VALID,337,VALID,0.278125,
2011-12-02, 02:40:04,VALID,999.31,VALID,0,VALID,94.7507,VALID,0,VALID,24.1707,VALID,337,VALID,0.0933594,
2011-12-02, 02:41:04,VALID,999.299,VALID,0,VALID,94.5905,VALID,0,VALID,24.1318,VALID,337,VALID,0.475391,
2011-12-02, 02:42:04,VALID,999.325,VALID,0,VALID,94.8651,VALID,0,VALID,24.1281,VALID,337,VALID,0.426953,
2011-12-02, 02:43:04,VALID,999.342,VALID,0,VALID,94.8422,VALID,0,VALID,24.1494,VALID,337,VALID,0.563281,
2011-12-02, 02:44:04,VALID,999.34,VALID,0,VALID,94.7736,VALID,0,VALID,24.1281,VALID,337,VALID,0.472656,
2011-12-02, 02:45:04,VALID,999.353,VALID,0,VALID,94.8041,VALID,0,VALID,24.1494,VALID,337,VALID,0.484766,
2011-12-02, 02:46:04,VALID,999.325,VALID,0,VALID,94.8422,VALID,0,VALID,24.1281,VALID,337,VALID,0.75625,
2011-12-02, 02:47:04,VALID,999.352,VALID,0,VALID,94.8499,VALID,0,VALID,24.1494,VALID,337,VALID,0.532031,
2011-12-02, 02:48:04,VALID,999.377,VALID,0,VALID,94.8728,VALID,0,VALID,24.1689,VALID,337,VALID,0.599219,
2011-12-02, 02:49:04,VALID,999.354,VALID,0,VALID,94.8575,VALID,0,VALID,24.1689,VALID,337,VALID,0.519922,
2011-12-02, 02:50:04,VALID,999.37,VALID,0,VALID,94.8575,VALID,0,VALID,24.1494,VALID,337,VALID,0.635156,
2011-12-02, 02:51:04,VALID,999.364,VALID,0,VALID,94.766,VALID,0,VALID,24.1494,VALID,339,VALID,0.558203,
2011-12-02, 02:52:04,VALID,999.352,VALID,0,VALID,94.7965,VALID,0,VALID,24.1494,VALID,338,VALID,0.430859,
2011-12-02, 02:53:04,VALID,999.363,VALID,0,VALID,94.8499,VALID,0,VALID,24.13,VALID,339,VALID,0.242969,
2011-12-02, 02:54:04,VALID,999.382,VALID,0,VALID,94.9185,VALID,0,VALID,24.1494,VALID,338,VALID,0.135547,
2011-12-02, 02:55:04,VALID,999.399,VALID,0,VALID,94.9872,VALID,0,VALID,24.1689,VALID,339,VALID,0,
2011-12-02, 02:56:04,VALID,999.414,VALID,0,VALID,94.9185,VALID,0.0815089,VALID,24.1494,VALID,339,VALID,0,
2011-12-02, 02:57:04,VALID,999.39,VALID,0,VALID,94.9185,VALID,0,VALID,24.1689,VALID,339,VALID,0,
2011-12-02, 02:58:04,VALID,999.412,VALID,0,VALID,94.9948,VALID,0,VALID,24.1689,VALID,339,VALID,0.2625,
2011-12-02, 02:59:04,VALID,999.438,VALID,0,VALID,94.9948,VALID,0,VALID,24.1884,VALID,338,VALID,0.253906,
2011-12-02, 03:00:04,VALID,999.432,VALID,0,VALID,94.8651,VALID,0,VALID,24.1884,VALID,338,VALID,0.292969,
2011-12-02, 03:01:04,VALID,999.458,VALID,0,VALID,94.9338,VALID,0,VALID,24.1884,VALID,338,VALID,0.341797,
2011-12-02, 03:02:04,VALID,999.478,VALID,0,VALID,94.9109,VALID,0,VALID,24.2078,VALID,338,VALID,0.00195313,
2011-12-02, 03:03:04,VALID,999.486,VALID,0,VALID,94.8804,VALID,0,VALID,24.1671,VALID,338,VALID,0,
2011-12-02, 03:04:04,VALID,999.495,VALID,0,VALID,94.7965,VALID,0.0815089,VALID,24.1689,VALID,338,VALID,0.233984,
2011-12-02, 03:05:04,VALID,999.485,VALID,0,VALID,94.7431,VALID,0,VALID,24.13,VALID,339,VALID,0.105469,
2011-12-02, 03:06:04,VALID,999.498,VALID,0,VALID,94.7583,VALID,0,VALID,24.13,VALID,338,VALID,0.214453,
2011-12-02, 03:07:04,VALID,999.51,VALID,0,VALID,94.7736,VALID,0,VALID,24.1105,VALID,338,VALID,0.198437,
2011-12-02, 03:08:04,VALID,999.526,VALID,0,VALID,94.8041,VALID,0.0815089,VALID,24.0697,VALID,338,VALID,0,
2011-12-02, 03:09:04,VALID,999.547,VALID,0,VALID,94.7965,VALID,0,VALID,24.0716,VALID,338,VALID,0,
2011-12-02, 03:10:04,VALID,999.582,VALID,0,VALID,94.8346,VALID,0,VALID,24.0929,VALID,338,VALID,0,
2011-12-02, 03:11:04,VALID,999.641,VALID,0,VALID,94.827,VALID,0.0815089,VALID,24.0716,VALID,339,VALID,0.230469,
2011-12-02, 03:12:04,VALID,999.664,VALID,0,VALID,94.827,VALID,0,VALID,24.0716,VALID,339,VALID,0.272656,
2011-12-02, 03:13:04,VALID,999.676,VALID,0,VALID,94.8499,VALID,0,VALID,24.0521,VALID,339,VALID,0.410937,
2011-12-02, 03:14:04,VALID,999.683,VALID,0,VALID,94.8422,VALID,0.0815089,VALID,24.0326,VALID,339,VALID,0.321875,
2011-12-02, 03:15:04,VALID,999.666,VALID,0,VALID,94.949,VALID,0,VALID,24.0521,VALID,338,VALID,0.0855469,
2011-12-02, 03:16:04,VALID,999.641,VALID,0,VALID,95.1245,VALID,0,VALID,24.091,VALID,339,VALID,0.0621094,
2011-12-02, 03:17:04,VALID,999.615,VALID,0,VALID,95.2542,VALID,0,VALID,24.1707,VALID,339,VALID,0.353906,
2011-12-02, 03:18:04,VALID,999.618,VALID,0,VALID,95.2084,VALID,0,VALID,24.1884,VALID,326,VALID,0.231641,
2011-12-02, 03:19:04,VALID,999.61,VALID,0,VALID,95.1932,VALID,0,VALID,24.1865,VALID,326,VALID,0.0578125,
2011-12-02, 03:20:04,VALID,999.63,VALID,0,VALID,95.1474,VALID,0,VALID,24.2468,VALID,325,VALID,0.31875,
2011-12-02, 03:21:04,VALID,999.603,VALID,0,VALID,95.0177,VALID,0.0815089,VALID,24.206,VALID,325,VALID,0.244531,
2011-12-02, 03:22:04,VALID,999.665,VALID,0,VALID,94.9796,VALID,0,VALID,24.2273,VALID,325,VALID,0,
2011-12-02, 03:23:04,VALID,999.649,VALID,0,VALID,94.9948,VALID,0,VALID,24.2273,VALID,325,VALID,0,
2011-12-02, 03:24:04,VALID,999.648,VALID,0,VALID,94.949,VALID,0.0815089,VALID,24.2468,VALID,325,VALID,0,
2011-12-02, 03:25:04,VALID,999.678,VALID,0,VALID,94.9262,VALID,0,VALID,24.2273,VALID,325,VALID,0,
2011-12-02, 03:26:04,VALID,999.643,VALID,0,VALID,94.949,VALID,0,VALID,24.2255,VALID,325,VALID,0.0726563,
2011-12-02, 03:27:04,VALID,999.669,VALID,0,VALID,95.0024,VALID,0,VALID,24.2449,VALID,325,VALID,0.325391,
2011-12-02, 03:28:04,VALID,999.677,VALID,0,VALID,94.9719,VALID,0,VALID,24.2662,VALID,325,VALID,0,
2011-12-02, 03:29:04,VALID,999.658,VALID,0,VALID,94.9185,VALID,0,VALID,24.2662,VALID,325,VALID,0.244141,
2011-12-02, 03:30:04,VALID,999.652,VALID,0,VALID,94.8956,VALID,0,VALID,24.2468,VALID,325,VALID,0.370313,
2011-12-02, 03:31:04,VALID,999.632,VALID,0,VALID,94.9109,VALID,0,VALID,24.2857,VALID,325,VALID,0,
2011-12-02, 03:32:04,VALID,999.61,VALID,0,VALID,94.9262,VALID,0,VALID,24.2857,VALID,325,VALID,0.242578,
2011-12-02, 03:33:04,VALID,999.617,VALID,0,VALID,94.9262,VALID,0,VALID,24.2857,VALID,325,VALID,0.0441406,
2011-12-02, 03:34:04,VALID,999.563,VALID,0,VALID,94.888,VALID,0,VALID,24.2857,VALID,325,VALID,0,
2011-12-02, 03:35:04,VALID,999.555,VALID,0,VALID,94.7965,VALID,0,VALID,24.2662,VALID,325,VALID,0,
2011-12-02, 03:36:04,VALID,999.53,VALID,0,VALID,94.7202,VALID,0,VALID,24.2468,VALID,325,VALID,0.0867188,
2011-12-02, 03:37:04,VALID,999.514,VALID,0,VALID,94.8422,VALID,0,VALID,24.2468,VALID,325,VALID,0.232422,
2011-12-02, 03:38:04,VALID,999.53,VALID,0,VALID,94.7583,VALID,0,VALID,24.2468,VALID,325,VALID,0.441797,
2011-12-02, 03:39:04,VALID,999.5,VALID,0,VALID,94.6439,VALID,0.0815089,VALID,24.2078,VALID,325,VALID,0.105859,
2011-12-02, 03:40:04,VALID,999.534,VALID,0,VALID,94.4532,VALID,0,VALID,24.1494,VALID,343,VALID,1.18867,
2011-12-02, 03:41:04,VALID,999.545,VALID,0,VALID,94.3921,VALID,0,VALID,24.091,VALID,346,VALID,0.562891,
2011-12-02, 03:42:04,VALID,999.538,VALID,0,VALID,94.4837,VALID,0,VALID,24.0716,VALID,338,VALID,0.678516,
2011-12-02, 03:43:04,VALID,999.518,VALID,0,VALID,94.5523,VALID,0,VALID,24.0521,VALID,340,VALID,0.625,
2011-12-02, 03:44:04,VALID,999.538,VALID,0,VALID,94.5752,VALID,0,VALID,24.0326,VALID,337,VALID,0.536719,
2011-12-02, 03:45:04,VALID,999.524,VALID,0,VALID,94.682,VALID,0,VALID,24.0326,VALID,344,VALID,0.597656,